SCP
0 0 0 0 0 0 0 0 0 0 0 0 0 0 -0 0 0 0 -0 0 0 0 0 0 0 0 0 0 0 0 0 0 0 0 0 0 0 0 0 0 0 0 0 0
0 0 0 0 0 0 0 0 0 0 0 0 0 -0 -0 0 0 0 -0 0 0 0 0 0 0 0 0 0 0 0 0 0 0 0 0 0 0 0 0 0 0 0 0 0
0 0 0 0 0 0 0 0 0 0 0 0 0 0 0 -0 0 0 0 0 0 0 0 0 0 0 0 0 0 0 0 0 0 0 0 0 0 0 0 0 0 0 0 0
0 0 0 0 0 0 0 0 0 0 0 0 0 0 0 0 0 0 0 0 0 0 0 0 0 0 0 0 0 0 0 0 0 0 0 0 0 0 0 0 0 0 0 0
0 0 0 0 0 0 0 0 0 0 0 0 0 0 0 0 0 0 0 0 0 0 0 0 0 0 0 0 0 0 0 0 0 0 0 0 0 0 0 0 0 0 0 0
0 0 0 0 0 0 0 0 0 0 0 0 0 0 0 0 0 0 0 0 0 0 0 0 0 0 0 0 0 0 0 0 0 0 0 0 0 0 0 0 0 0 0 0
0 0 0 0 0 0 0 0 0 0 0 0 0 0 0 0 0 0 0 0 0 0 0 0 0 0 0 0 0 0 0 0 0 0 0 0 0 0 0 0 0 0 0 0
0 0 0 0 0 0 0 0 0 0 0 0 0 0 0 0 0 0 0 0 0 0 0 0 0 0 0 0 0 0 0 0 0 0 0 0 0 0 0 0 0 0 0 0
0 0 0 0 0 0 0 0 0 0 0 0 0 0 0 0 0 0 0 0 0 0 0 0 0 0 0 0 0 0 0 0 0 0 0 0 0 0 0 0 0 0 0 0
0 0 0 0 0 0 0 0 0 0 0 0 0 0 0 0 0 0 0 0 0 0 0 0 0 0 0 0 0 0 0 0 0 0 0 0 0 0 0 0 0 0 0 0
0 0 0 0 0 0 0 0 0 0 0 0 0 0 0 0 0 0 0 0 0 0 0 0 0 0 0 0 0 0 0 0 0 0 0 0 0 0 0 0 0 0 0 0
0 0 0 0 0 0 0 0 0 0 0 0 0 0 0 0 0 0 0 0 0 0 0 0 0 0 0 0 0 0 0 0 0 0 0 0 0 0 0 0 0 0 0 0
0 0 0 0 0 0 0 0 0 0 0 0 0 0 0 0 0 0 0 0 0 0 0 0 0 0 0 0 0 0 0 0 0 0 0 0 0 0 0 0 0 0 0 0
0 0 0 0 0 0 0 0 0 0 0 0 0 0 0 0 0 0 0 0 0 0 0 0 0 0 0 0 0 0 0 0 0 0 0 0 0 0 0 0 0 0 0 0
0 0 0 0 0 0 0 0 0 0 0 0 0 0 0 0 0 0 0 0 0 0 0 0 0 0 0 0 0 0 0 0 0 0 0 0 0 0 0 0 0 0 0 0
0 0 0 0 0 0 0 0 0 0 0 0 0 0 0 0 0 0 0 0 0 0 0 0 0 0 0 0 0 0 0 0 0 0 0 0 0 0 0 0 0 0 0 0
0 0 0 0 0 0 0 0 0 0 0 0 0 0 0 0 0 0 0 0 0 0 0 0 0 0 0 0 0 0 0 0 0 0 0 0 0 0 0 0 0 0 0 0
0 0 0 0 0 0 0 0 0 0 0 0 0 0 0 0 0 0 0 0 0 0 0 0 0 0 0 0 0 0 0 0 0 0 0 0 0 0 0 0 0 0 0 0
0 0 0 0 0 0 0 0 0 0 0 0 0 0 0 0 0 0 0 0 0 0 0 0 0 0 0 0 0 0 0 0 0 0 0 0 0 0 0 0 0 0 0 0
0 0 0 0 0 0 0 0 0 0 0 0 0 0 0 0 0 0 0 0 0 0 0 0 0 0 0 0 0 0 0 0 0 0 0 0 0 0 0 0 0 0 0 0
0 0 0 0 0 0 0 0 0 0 0 0 0 0 0 0 0 0 0 0 0 0 0 0 0 0 0 0 0 0 0 0 0 0 0 0 0 0 0 0 0 0 0 0
0 0 0 0 0 0 0 0 0 0 0 0 0 0 0 0 0 0 0 0 0 0 0 0 0 0 0 0 0 0 0 0 0 0 0 0 0 0 0 0 0 0 0 0
0 0 0 0 0 0 0 0 0 0 0 0 0 0 0 0 0 0 0 0 0 0 0 0 0 0 0 0 0 0 0 0 0 0 0 0 0 0 0 0 0 0 0 0
0 0 0 0 0 0 0 0 0 0 0 0 0 0 0 0 0 0 0 0 0 0 0 0 0 0 0 0 0 0 0 0 0 0 0 0 0 0 0 0 0 0 0 0
0 0 0 0 0 0 0 0 0 0 0 0 0 0 0 0 0 0 0 0 0 0 0 0 0 0 0 0 0 0 0 0 0 0 0 0 0 0 0 0 0 0 0 0
0 0 0 0 0 0 0 0 0 0 0 0 0 0 0 0 0 0 0 0 0 0 0 0 0 0 0 0 0 0 0 0 0 0 0 0 0 0 0 0 0 0 0 0
Wind_Speed
5 5 8 9 7 5 8 7 5 4 4 6 8 5 4 7 9 11 11 10 9 8 4 0 0 2 3 3 4 3 3 2 2 2 2 2 2 2 2 2 3 4 4 5
4 5 6 6 6 7 8 8 6 2 4 5 5 6 5 7 10 12 12 12 11 7 4 3 1 2 3 4 4 4 4 3 2 2 2 1 1 1 1 1 1 1 1 2
3 4 7 8 7 7 5 8 7 5 3 2 3 4 7 8 7 7 9 10 9 9 9 6 4 3 4 4 4 4 4 4 3 2 2 2 2 1 1 1 1 2 2 2
2 3 7 8 6 6 4 5 7 7 6 1 3 4 7 7 8 11 13 11 10 8 8 6 6 5 4 4 4 5 5 5 4 3 3 2 1 0 1 1 2 3 3 3
2 3 8 8 6 6 4 5 5 5 5 2 1 3 8 4 10 15 14 12 10 9 10 9 7 6 5 4 5 5 6 6 5 5 4 3 2 0 1 1 2 3 3 3
2 2 2 4 5 5 6 8 7 5 4 3 5 5 9 7 10 9 9 11 11 10 9 8 6 6 5 4 5 5 6 6 5 5 5 4 2 1 1 2 3 3 3 2
3 3 2 2 7 4 5 7 4 2 2 6 3 6 11 8 8 8 8 8 8 9 10 10 10 8 6 6 5 5 6 5 4 5 4 3 2 2 1 1 2 3 3 3
4 3 1 1 4 6 5 6 7 6 6 3 3 9 10 7 5 6 7 6 5 8 9 11 11 9 8 7 6 5 6 5 4 4 4 3 3 1 1 2 2 2 2 3
6 3 2 2 2 7 6 3 4 5 2 1 6 8 11 5 6 6 6 5 6 8 9 9 8 7 7 7 6 5 6 5 4 3 3 3 3 3 2 2 2 2 2 2
4 5 2 1 4 4 4 7 5 5 5 4 5 5 6 6 7 6 5 5 5 7 8 8 7 7 6 5 5 5 5 4 3 3 2 3 3 3 3 3 4 4 4 4
3 5 4 3 3 6 4 4 4 4 4 4 4 7 6 6 7 8 7 6 6 8 8 8 7 6 6 5 5 5 4 4 3 3 3 3 3 3 4 4 4 4 4 5
3 4 4 2 1 0 3 5 6 5 4 4 3 9 5 4 7 7 6 4 6 6 6 7 7 6 6 5 5 4 4 3 3 3 3 3 3 4 4 4 4 4 5 5
4 5 5 2 1 2 3 4 5 4 4 5 5 9 4 2 3 2 4 5 6 7 7 6 6 6 6 5 5 4 4 3 3 3 4 4 4 4 4 4 4 5 5 5
5 4 4 7 4 5 5 6 7 6 6 6 9 9 8 7 5 2 4 6 6 7 7 7 7 6 6 5 5 4 4 3 3 4 4 4 3 4 4 4 5 5 5 5
4 3 2 2 1 3 5 7 10 12 11 10 8 10 11 8 6 5 5 6 7 7 8 9 8 7 6 6 5 5 4 4 4 4 4 4 3 4 4 5 5 5 6 6
3 3 2 1 0 3 4 7 10 13 12 13 12 16 9 7 5 5 6 8 9 10 10 9 8 9 8 8 7 6 5 4 4 4 4 4 4 4 4 5 5 5 6 6
3 4 3 2 2 2 7 10 12 8 8 9 16 16 5 6 8 9 9 10 12 12 11 11 11 10 9 8 7 7 6 5 5 5 4 4 4 5 5 5 5 5 5 5
6 4 3 1 1 7 8 2 6 8 9 10 10 9 8 11 10 8 8 10 11 10 10 10 9 8 7 7 7 6 6 6 5 5 5 5 5 5 5 5 5 5 4 4
5 6 3 2 2 8 8 3 4 6 7 7 12 14 10 6 4 6 7 9 10 9 8 7 8 8 8 9 8 8 7 6 6 5 5 5 5 5 5 5 4 4 4 3
2 3 4 3 2 6 5 3 2 3 5 4 5 9 7 3 4 7 5 6 6 5 6 7 8 8 9 9 9 8 7 7 6 6 5 5 5 5 5 5 4 3 3 3
3 2 4 4 4 7 7 3 2 1 5 5 4 6 5 7 7 3 1 3 4 5 6 8 9 8 9 9 9 8 7 7 6 6 5 5 5 5 5 4 3 3 3 2
6 4 5 5 5 8 3 2 3 5 5 5 5 4 3 4 2 0 2 3 5 5 6 7 8 7 7 9 9 8 7 6 6 6 6 5 5 4 4 4 3 3 3 2
4 5 5 7 7 4 1 2 3 3 4 5 4 4 1 1 1 1 2 3 4 5 6 6 7 7 7 8 8 8 7 7 7 6 6 5 5 4 4 4 4 3 3 3
3 1 1 4 6 5 4 2 3 3 4 5 4 3 1 1 1 2 3 3 4 5 5 6 7 7 7 8 7 7 7 8 8 7 6 6 6 5 4 4 4 4 4 4
3 2 2 5 5 7 5 4 5 6 6 5 5 3 2 1 2 3 3 4 4 4 5 6 7 8 8 8 8 7 8 9 8 7 7 6 6 5 5 5 5 5 5 5
1 1 2 4 3 4 8 7 7 6 6 6 5 5 3 2 2 2 3 3 4 5 5 6 7 7 7 8 9 9 9 10 9 8 8 6 6 5 5 4 4 8 8 9
Wind_Direction
165 167 183 183 176 138 131 131 148 176 172 170 199 215 219 192 196 213 229 243 247 249 255 271 93 113 106 97 107 115 121 109 120 126 152 174 207 210 210 217 224 224 227 224
131 190 174 145 148 136 138 138 147 139 152 160 193 229 235 214 207 209 220 231 239 235 225 206 166 111 113 112 105 101 99 92 96 118 130 146 151 187 206 234 246 260 264 250
150 165 154 150 149 143 153 158 155 142 104 84 129 254 242 241 226 224 224 225 229 216 209 203 185 155 129 117 113 107 95 83 73 84 94 75 62 39 28 5 342 333 318 296
117 147 154 152 156 141 157 162 141 129 126 182 167 244 256 234 241 233 230 223 219 209 197 194 186 169 147 128 108 100 91 78 64 67 86 108 127 190 313 323 317 323 334 331
133 153 154 160 160 138 147 129 119 125 124 112 166 224 273 231 236 238 231 222 215 203 192 189 182 165 138 122 108 99 89 74 62 63 77 91 94 67 319 335 336 335 335 341
81 59 115 143 128 123 117 86 65 61 89 223 206 198 267 228 222 236 232 220 210 197 186 173 155 139 126 114 104 98 91 75 62 64 65 78 83 47 13 355 342 335 329 336
72 55 26 105 114 104 114 111 100 112 188 241 199 210 248 240 229 228 240 236 213 189 172 163 158 155 146 132 117 105 98 83 67 68 64 62 64 62 38 343 334 334 336 336
130 142 76 64 139 148 161 143 154 172 195 241 218 233 253 256 266 258 258 253 211 185 175 170 165 156 149 139 128 117 107 97 80 75 67 54 49 49 25 358 343 337 328 324
148 142 82 64 74 130 140 157 142 118 123 210 252 278 299 276 274 262 257 238 207 182 170 163 153 148 145 140 135 129 120 108 94 87 81 62 46 45 34 16 11 357 346 349
123 124 118 107 93 47 136 140 112 124 157 232 270 265 255 282 279 281 261 234 204 169 157 152 149 146 140 132 123 117 118 117 107 90 76 73 49 45 43 44 37 28 18 21
98 118 129 130 169 160 128 138 135 143 167 180 252 268 231 242 269 272 258 224 187 170 163 156 147 137 131 126 125 122 119 114 104 90 79 70 54 50 52 52 42 35 33 34
123 112 123 116 37 136 165 171 154 167 207 195 215 268 267 257 272 261 247 203 175 167 159 150 144 141 142 143 140 134 128 118 112 104 91 79 67 63 62 56 48 47 48 45
135 120 120 113 231 182 195 189 179 146 150 180 201 259 281 304 316 253 201 183 169 160 154 150 153 159 160 157 152 144 135 127 120 110 99 87 76 73 69 63 58 56 57 55
118 125 163 183 204 174 187 195 183 179 210 221 224 248 284 303 313 286 212 194 180 174 170 170 173 172 168 162 158 152 146 139 131 121 114 102 92 88 84 76 70 66 65 63
111 144 186 225 203 163 200 205 199 210 220 229 239 237 248 259 264 250 218 196 185 187 188 188 185 178 171 166 164 161 155 147 137 131 125 117 111 103 97 88 79 73 68 66
99 124 109 338 274 204 241 230 217 225 231 239 254 261 245 249 250 240 215 198 200 204 202 195 185 179 180 177 171 165 161 154 144 140 136 132 126 117 108 100 92 82 74 67
121 125 123 283 324 359 265 229 210 210 212 209 237 250 242 242 239 231 218 207 210 209 203 195 192 188 183 177 168 167 161 152 149 147 142 142 137 123 113 108 98 91 82 73
136 126 130 156 95 242 245 248 202 218 241 227 243 259 241 236 242 237 215 208 215 210 201 196 184 175 166 160 157 153 151 152 151 149 148 147 141 129 121 111 103 96 86 79
145 136 132 148 240 279 294 276 193 199 266 235 239 257 260 254 268 267 229 211 214 208 196 184 170 158 153 156 154 150 153 155 156 157 154 152 145 138 131 122 114 104 98 88
110 126 136 165 231 258 263 285 192 147 287 277 239 258 262 194 229 257 225 202 199 177 159 149 142 141 152 156 153 155 161 164 167 163 155 148 144 142 137 133 124 111 113 113
149 168 182 190 238 268 263 277 137 186 270 303 282 268 246 209 223 260 170 152 148 138 135 138 144 151 158 156 156 162 168 175 164 150 147 146 145 144 139 135 129 128 128 122
179 185 195 182 214 255 276 128 179 245 285 302 300 290 259 236 242 80 101 114 122 124 130 141 146 149 152 158 162 169 177 164 149 149 152 153 152 154 148 148 148 150 154 161
205 198 195 201 221 244 293 240 280 294 299 306 309 313 289 221 199 137 130 134 139 142 145 146 148 150 159 169 171 177 174 157 155 158 162 162 161 162 159 167 173 176 183 194
291 342 237 270 275 290 290 304 334 327 304 306 312 310 288 246 190 157 150 154 157 159 161 157 157 167 179 183 185 180 164 163 165 172 175 172 175 178 179 185 188 191 195 203
292 324 287 274 301 326 324 337 330 327 329 330 330 318 293 249 215 187 178 179 179 175 173 175 183 189 190 185 191 182 170 168 176 181 185 186 189 188 193 202 206 204 208 199
280 281 285 274 311 299 294 310 317 314 314 315 314 312 310 272 238 207 197 189 183 184 180 187 197 201 195 189 194 188 181 179 181 188 193 194 192 193 196 202 224 236 227 231